Location: Summit Observatory
(39.5293°N, 75.7290°W)
Time: 02:54:46
(UTC-04:00)

Amateur Radio Satellites - All Passes

Search period start: 01 November 2014 02:24
Search period end: 02 November 2014 01:24
Location: Summit Observatory, 39.5293°N, 75.7290°W

Satellite Date Start Highest point End Downlink Frequencies (MHz)
Time Altitude Azimuth
RS-15 01 Nov 02:25:29 02:32:18 18° 4° (N) 02:39:13 29.354 - 29.394 USB, Beacon 29.352 USB
Oscar 19 01 Nov 02:32:47 02:37:54 69° 102° (ESE) 02:43:00 437.125 CW, 437.150 USB
AO-27 01 Nov 03:10:27 03:15:39 63° 102° (ESE) 03:20:48 436.795 MHz FM
Oscar 16 01 Nov 03:20:13 03:25:01 42° 290° (WNW) 03:29:48 437.025 USB, Beacon 2401.1428
Gurwin Techsat 1B 01 Nov 03:29:03 03:34:13 50° 100° (E) 03:39:21 435.225 FM
TMSAT-1 01 Nov 03:35:09 03:40:10 42° 98° (E) 03:45:09 436.925 FM
Sapphire 01 Nov 03:36:17 03:41:09 33° 307° (NW) 03:46:03 437.095 MHz 1200 baud AX-25 AFSK
AO-Echo 01 Nov 03:50:37 03:55:36 41° 290° (WNW) 04:00:30 ?
Uribyol 2 01 Nov 03:54:06 03:59:06 49° 289° (WNW) 04:04:03 436.500 FM
PCSat 01 Nov 03:58:55 04:03:03 22° 312° (NW) 04:07:14 145.825 MHz
AO-7 01 Nov 03:59:50 04:05:36 20° 92° (E) 04:11:20 29.400 - 29.500 MHz
ITAMSAT 1 01 Nov 04:02:16 04:07:12 44° 290° (WNW) 04:12:06 435.822 SSB
JAS-1B 01 Nov 04:06:06 04:12:20 33° 294° (WNW) 04:19:33 435.800 - 435.900 CW/SSB
Oscar 19 01 Nov 04:13:54 04:16:38 15° 298° (WNW) 04:19:23 437.125 CW, 437.150 USB
RS-15 01 Nov 04:39:42 04:49:33 34° 38° (NE) 04:59:40 29.354 - 29.394 USB, Beacon 29.352 USB
PANSAT 01 Nov 04:48:18 04:50:26 14° 173° (S) 04:52:33 not established
AO-27 01 Nov 04:51:26 04:54:37 17° 298° (WNW) 04:57:48 436.795 MHz FM
Gurwin Techsat 1B 01 Nov 05:09:56 05:13:48 21° 296° (WNW) 05:17:39 435.225 FM
TMSAT-1 01 Nov 05:15:37 05:19:49 24° 295° (WNW) 05:23:59 436.925 FM
OPAL 01 Nov 05:18:01 05:23:06 72° 72° (ENE) 05:28:09 ?
Saudisat 1A 01 Nov 05:18:10 05:22:03 32° 114° (ESE) 05:25:58 436.775 MHz
STRAND 1 01 Nov 05:39:36 05:42:08 14° 61° (ENE) 05:44:40 ?
Uosat F 01 Nov 05:42:18 05:47:23 86° 285° (WNW) 05:52:25 435.120 FM
JAS-2 01 Nov 05:46:28 05:53:44 39° 95° (E) 06:00:41 435.800 - 435.900 CW/SSB, 435.910 FM
AO-7 01 Nov 05:50:49 05:59:10 81° 290° (WNW) 06:07:31 29.400 - 29.500 MHz
Hamsat 01 Nov 06:26:37 06:30:37 40° 98° (E) 06:34:38 145.90 MHz
PANSAT 01 Nov 06:27:41 06:29:54 15° 186° (S) 06:32:06 not established
RS-15 01 Nov 06:51:54 07:03:07 80° 242° (WSW) 07:14:50 29.354 - 29.394 USB, Beacon 29.352 USB
Saudisat 1A 01 Nov 06:57:52 07:01:37 27° 311° (NW) 07:05:23 436.775 MHz
OPAL 01 Nov 07:00:19 07:02:26 13° 267° (W) 07:04:33 ?
STRAND 1 01 Nov 07:15:32 07:20:40 75° 257° (WSW) 07:25:50 ?
Uosat F 01 Nov 07:24:26 07:25:21 11° 301° (WNW) 07:26:16 435.120 FM
JAS-2 01 Nov 07:31:21 07:38:42 45° 293° (WNW) 07:45:49 435.800 - 435.900 CW/SSB, 435.910 FM
MaSat-1 01 Nov 07:33:37 07:35:54 34° 61° (ENE) 07:38:06 437.345 MHz
AO-7 01 Nov 07:45:31 07:50:42 19° 309° (NW) 07:55:54 29.400 - 29.500 MHz
Hamsat 01 Nov 08:03:33 08:06:14 17° 293° (WNW) 08:08:55 145.90 MHz
SO-67 01 Nov 08:20:14 08:23:39 65° 284° (WNW) 08:27:03 435.3500 MHz FM
RS-15 01 Nov 09:07:08 09:13:44 18° 261° (W) 09:20:30 29.354 - 29.394 USB, Beacon 29.352 USB
KITSAT 1 01 Nov 09:08:51 09:11:50 12° 98° (E) 09:14:49 435.175 FM
HO-68 01 Nov 09:19:13 09:25:40 35° 97° (E) 09:32:03 435.675 MHz FM
ISS 01 Nov 09:51:07 09:54:21 53° 138° (SE) 09:57:36 145.800 FM
UKube-1 01 Nov 10:12:45 10:16:38 31° 97° (E) 10:20:29 145.840 MHz, 145.915 MHz
ZACube-1 01 Nov 10:24:19 10:26:58 16° 93° (E) 10:29:35 437.345 MHz
Sapphire 01 Nov 10:41:41 10:46:09 25° 50° (NE) 10:50:36 437.095 MHz 1200 baud AX-25 AFSK
Oscar 11 01 Nov 10:46:36 10:50:55 76° 102° (ESE) 10:55:14 145.825 FM, Beacon 2401.500 USB
KITSAT 1 01 Nov 10:57:48 11:05:50 74° 116° (ESE) 11:13:53 435.175 FM
SO-50 01 Nov 10:58:55 11:03:17 55° 118° (ESE) 11:07:48 436.795 FM
PCSat 01 Nov 11:02:54 11:07:59 39° 54° (NE) 11:13:01 145.825 MHz
FUNcube-1 01 Nov 11:05:49 11:09:54 49° 99° (E) 11:13:54 145.950 - 145.970 MHz USB
HO-68 01 Nov 11:06:42 11:13:25 45° 294° (WNW) 11:20:07 435.675 MHz FM
ISS 01 Nov 11:28:33 11:31:14 22° 335° (NNW) 11:33:56 145.800 FM
UOSAT-12 01 Nov 11:40:04 11:42:18 13° 107° (ESE) 11:44:33 437.025 FM, 437.400 FM
UKube-1 01 Nov 11:49:13 11:52:38 23° 293° (WNW) 11:56:02 145.840 MHz, 145.915 MHz
ZACube-1 01 Nov 11:59:39 12:03:31 37° 288° (WNW) 12:07:20 437.345 MHz
Oscar 19 01 Nov 12:13:54 12:15:19 11° 59° (ENE) 12:16:44 437.125 CW, 437.150 USB
Sapphire 01 Nov 12:24:36 12:29:49 48° 248° (WSW) 12:34:59 437.095 MHz 1200 baud AX-25 AFSK
SO-50 01 Nov 12:40:56 12:44:12 19° 316° (NW) 12:47:32 436.795 FM
FUNcube-1 01 Nov 12:43:47 12:45:50 13° 296° (WNW) 12:47:51 145.950 - 145.970 MHz USB
PCSat 01 Nov 12:46:37 12:51:13 29° 252° (WSW) 12:55:47 145.825 MHz
AO-27 01 Nov 12:52:47 12:54:11 11° 58° (ENE) 12:55:35 436.795 MHz FM
KITSAT 1 01 Nov 12:55:12 13:01:58 29° 317° (NW) 13:08:46 435.175 FM
Oscar 16 01 Nov 12:57:37 13:02:03 30° 68° (ENE) 13:06:30 437.025 USB, Beacon 2401.1428
JAS-1B 01 Nov 13:01:47 13:06:46 32° 66° (ENE) 13:11:46 435.800 - 435.900 CW/SSB
ISS 01 Nov 13:08:05 13:08:54 11° 355° (N) 13:09:43 145.800 FM
UOSAT-12 01 Nov 13:17:16 13:21:51 65° 304° (NW) 13:26:34 437.025 FM, 437.400 FM
AO-Echo 01 Nov 13:24:32 13:28:43 27° 67° (ENE) 13:33:01 ?
Uribyol 2 01 Nov 13:32:31 13:36:53 28° 67° (ENE) 13:41:16 436.500 FM
ITAMSAT 1 01 Nov 13:40:34 13:45:05 31° 67° (ENE) 13:49:38 435.822 SSB
Saudisat 1A 01 Nov 13:45:35 13:49:07 23° 47° (NE) 13:52:38 436.775 MHz
Oscar 19 01 Nov 13:48:44 13:53:52 89° 76° (ENE) 13:59:02 437.125 CW, 437.150 USB
AO-27 01 Nov 14:27:38 14:32:52 86° 75° (ENE) 14:38:08 436.795 MHz FM
Oscar 16 01 Nov 14:36:47 14:41:19 31° 263° (W) 14:45:52 437.025 USB, Beacon 2401.1428
ISS 01 Nov 14:44:48 14:46:44 14° 16° (NNE) 14:48:40 145.800 FM
Gurwin Techsat 1B 01 Nov 14:49:12 14:54:28 72° 74° (ENE) 14:59:46 435.225 FM
JAS-1B 01 Nov 14:52:29 14:57:28 30° 264° (W) 15:02:27 435.800 - 435.900 CW/SSB
TMSAT-1 01 Nov 14:54:55 15:00:07 60° 73° (ENE) 15:05:20 436.925 FM
AO-7 01 Nov 14:58:01 15:04:41 28° 57° (ENE) 15:11:22 29.400 - 29.500 MHz
UOSAT-12 01 Nov 15:01:38 15:02:56 11° 323° (NW) 15:04:15 437.025 FM, 437.400 FM
AO-Echo 01 Nov 15:02:49 15:07:19 34° 264° (W) 15:11:59 ?
Uribyol 2 01 Nov 15:11:27 15:16:12 35° 263° (W) 15:20:59 436.500 FM
Uosat F 01 Nov 15:18:49 15:21:27 14° 61° (ENE) 15:24:05 435.120 FM
ITAMSAT 1 01 Nov 15:19:54 15:24:30 31° 263° (W) 15:29:08 435.822 SSB
Saudisat 1A 01 Nov 15:24:40 15:28:49 40° 244° (WSW) 15:32:57 436.775 MHz
JAS-2 01 Nov 16:00:12 16:03:46 15° 54° (NE) 16:07:31 435.800 - 435.900 CW/SSB, 435.910 FM
AO-27 01 Nov 16:12:23 16:13:00 10° 271° (W) 16:13:37 436.795 MHz FM
ISS 01 Nov 16:20:43 16:24:00 56° 35° (NE) 16:27:17 145.800 FM
Gurwin Techsat 1B 01 Nov 16:32:28 16:34:56 13° 270° (W) 16:37:25 435.225 FM
TMSAT-1 01 Nov 16:37:11 16:40:24 16° 269° (W) 16:43:38 436.925 FM
AO-7 01 Nov 16:48:38 16:56:50 67° 255° (WSW) 17:05:06 29.400 - 29.500 MHz
Uosat F 01 Nov 16:54:37 16:59:37 69° 258° (WSW) 17:04:40 435.120 FM
KITSAT 1 01 Nov 16:59:08 17:00:58 11° 18° (NNE) 17:02:47 435.175 FM
Hamsat 01 Nov 17:19:24 17:22:52 26° 70° (ENE) 17:26:20 145.90 MHz
OPAL 01 Nov 17:29:52 17:33:22 19° 96° (E) 17:36:51 ?
JAS-2 01 Nov 17:41:13 17:47:30 83° 75° (ENE) 17:54:42 435.800 - 435.900 CW/SSB, 435.910 FM
ISS 01 Nov 17:58:22 18:00:22 15° 230° (SW) 18:02:21 145.800 FM
AO-7 01 Nov 18:50:08 18:51:01 10° 273° (W) 18:51:55 29.400 - 29.500 MHz
SO-67 01 Nov 18:51:52 18:54:55 31° 73° (ENE) 18:58:00 435.3500 MHz FM
KITSAT 1 01 Nov 18:52:21 18:59:28 32° 45° (NE) 19:06:32 435.175 FM
Hamsat 01 Nov 18:55:21 18:58:44 24° 265° (W) 19:02:09 145.90 MHz
OPAL 01 Nov 19:07:44 19:12:27 46° 291° (WNW) 19:17:09 ?
RS-15 01 Nov 19:08:41 19:14:09 15° 98° (E) 19:19:34 29.354 - 29.394 USB, Beacon 29.352 USB
STRAND 1 01 Nov 19:27:17 19:32:08 40° 98° (E) 19:36:55 ?
JAS-2 01 Nov 19:29:58 19:33:34 15° 275° (W) 19:37:23 435.800 - 435.900 CW/SSB, 435.910 FM
SO-50 01 Nov 19:31:13 19:35:49 41° 52° (NE) 19:40:27 436.795 FM
HO-68 01 Nov 19:47:47 19:53:19 25° 59° (ENE) 19:58:52 435.675 MHz FM
UOSAT-12 01 Nov 20:09:21 20:11:35 13° 39° (NE) 20:13:48 437.025 FM, 437.400 FM
SO-67 01 Nov 20:26:21 20:27:58 13° 268° (W) 20:29:36 435.3500 MHz FM
KITSAT 1 01 Nov 20:47:25 20:55:22 63° 246° (WSW) 21:03:16 435.175 FM
STRAND 1 01 Nov 21:07:00 21:11:04 24° 295° (WNW) 21:15:06 ?
UKube-1 01 Nov 21:07:34 21:11:06 25° 68° (ENE) 21:14:40 145.840 MHz, 145.915 MHz
MaSat-1 01 Nov 21:07:55 21:10:21 16° 107° (ESE) 21:12:40 437.345 MHz
SO-50 01 Nov 21:12:16 21:16:09 24° 249° (WSW) 21:20:03 436.795 FM
RS-15 01 Nov 21:13:32 21:24:30 76° 117° (ESE) 21:35:24 29.354 - 29.394 USB, Beacon 29.352 USB
ZACube-1 01 Nov 21:20:35 21:22:57 14° 65° (ENE) 21:25:18 437.345 MHz
HO-68 01 Nov 21:33:21 21:40:26 65° 257° (WSW) 21:47:36 435.675 MHz FM
Oscar 11 01 Nov 21:40:34 21:44:45 52° 74° (ENE) 21:48:57 145.825 FM, Beacon 2401.500 USB
UOSAT-12 01 Nov 21:47:45 21:52:29 83° 58° (ENE) 21:57:07 437.025 FM, 437.400 FM
FUNcube-1 01 Nov 22:01:01 22:05:10 37° 72° (ENE) 22:09:15 145.950 - 145.970 MHz USB
MaSat-1 01 Nov 22:42:03 22:45:31 32° 299° (WNW) 22:48:42 437.345 MHz
UKube-1 01 Nov 22:43:25 22:47:10 28° 263° (W) 22:50:56 145.840 MHz, 145.915 MHz
ZACube-1 01 Nov 22:54:27 22:58:54 55° 260° (W) 23:03:16 437.345 MHz
Oscar 11 01 Nov 23:19:17 23:21:13 13° 269° (W) 23:23:09 145.825 FM, Beacon 2401.500 USB
RS-15 01 Nov 23:28:14 23:37:54 35° 322° (NW) 23:47:40 29.354 - 29.394 USB, Beacon 29.352 USB
UOSAT-12 01 Nov 23:31:26 23:31:53 10° 254° (WSW) 23:32:21 437.025 FM, 437.400 FM
FUNcube-1 01 Nov 23:38:22 23:41:37 19° 266° (W) 23:44:50 145.950 - 145.970 MHz USB
JAS-1B 02 Nov 00:47:54 00:49:47 11° 89° (E) 00:51:44 435.800 - 435.900 CW/SSB
Oscar 16 02 Nov 01:12:59 01:13:48 10° 89° (E) 01:14:36 437.025 USB, Beacon 2401.1428
Sapphire 02 Nov 01:23:09 01:27:27 25° 107° (ESE) 01:31:46 437.095 MHz 1200 baud AX-25 AFSK
PCSat 02 Nov 01:43:43 01:48:45 41° 111° (ESE) 01:53:49 145.825 MHz
RS-15 02 Nov 01:48:16 01:55:04 18° 356° (N) 01:01:58 29.354 - 29.394 USB, Beacon 29.352 USB
ITAMSAT 1 02 Nov 01:56:49 01:58:06 11° 89° (E) 01:59:22 435.822 SSB
Oscar 19 02 Nov 01:01:34 01:06:12 34° 97° (E) 01:10:49 437.125 CW, 437.150 USB
